{"data":{"norad_id":66242,"epoch":"2026-09-20T22:54:18.565056Z","epoch_age_seconds":57434,"freshness":"FRESH","line1":"1 66242U 25245J   26263.95438154  .00018081  00000+0  54485-3 0  9992","line2":"2 66242  53.1603  95.4047 0002685  62.1742 297.9533 15.34406517 51170","mean_motion":15.34406517,"eccentricity":0.0002685,"inclination_deg":53.1603,"raan_deg":95.4047,"arg_perigee_deg":62.1742,"mean_anomaly_deg":297.9533,"bstar":0.00054485,"rev_number":5117,"period_min":93.847359486938,"perigee_km":460.84710997457,"apogee_km":464.52063078196,"semimajor_km":6840.8208703783,"source":"CELESTRAK","updated_at":"2026-09-21T09:00:35.847306Z"}}